星链-3707 (STARLINK-3707 )

导读

STARLINK-3707是美国SpaceX星链星座的一颗低轨通信卫星,于2022年3月19日发射升空,属于星链第一代组网卫星。星链计划旨在构建全球覆盖的卫星互联网,提供高速宽带服务,该卫星运行在近地轨道,配备氪离子推进系统与相控阵通信天线,可支持全球偏远地区网络接入,当前仍在轨正常服务,是星链规模部署过程中的组成单元,为后续全球星座组网完善提供支撑。

Basic Information
目录编号:
52133
目录名称:
STARLINK-3707
国际标识:
2022-029AX
轨道中心:
EARTH
卫星名称:
星链-3707
卫星全名:
星链-3707 (STARLINK-3707 )
卫星状态:
在轨 (已飞行1630 天)
发射日期:
2022-03-19 UTC
国别 :
美国 (US)
星等 :
--
Orbit Information
数据来源 国际轨道数据
星历时间: 2026-09-03T23:45:43+0800
13小时前
查看轨道信息
半长轴: 6840.872km
偏心率: 0.0001075
轨道倾角: 53.161°
近地点辐角 72.338°
升交点赤经 346.156°
平近点角 287.774°
近地点: 461.999km
远地点: 463.471km
周期: 93.848分钟
每日圈数: 15.343896
Detailed Information
固有亮度:
5
最大亮度:
2.5
卫星平台:
Starlink v1.5
覆盖范围:
全球
运营商:
太空探索技术公司
运营商所在国:
美国
制造商(研发单位):
太空探索技术公司
制造商所在国:
美国
使用方式:
暂无
Satellite Introduction
星链(Starlink)计划是由太空探索技术公司(SpaceX)提出的一个巨型低轨卫星互联网星座项目,计划在2019年至2024年间在太空搭建由约1.2万颗卫星组成的“星链”网络,其中1584颗将部署在地球上空550千米处的近地轨道,并从2020年开始工作。该卫星仍在工作。
2D Orbit Map
3D Orbit Map
Orbit Altitude Analysis Chart
Orbit Inclination Analysis Chart
Orbit Comprehensive Analysis Chart
View Comprehensive Chart
Conjunction Data List
Event ID Objects TCA Miss Dist (km) Collision Risk Probability Collision Risk Index (CRI) Action
CDM_260905-154305-213305-416421
2026-09-05T
15:43:24+0000
0.342 km
远距离
3.004569E-4 高风险 0.85
CDM_260830-085405-213306-891421
2026-08-30T
08:54:15+0000
1.617 km
极远距离
3.98725E-6 低风险 0.47
CDM_260830-080805-213306-025821
2026-08-30T
08:08:34+0000
2.909 km
极远距离
7.03696E-7 极低风险 0.32
CDM_260829-194405-213306-344821
2026-08-29T
19:44:36+0000
2.978 km
极远距离
6.929948E-7 极低风险 0.32
CDM_260905-040605-213305-214021
2026-09-05T
04:06:29+0000
2.849 km
极远距离
2.344065E-7 极低风险 0.22